Date,TemperatureHighF,TemperatureAvgF,TemperatureLowF,DewpointHighF,DewpointAvgF,DewpointLowF,HumidityHigh,HumidityAvg,HumidityLow,PressureMaxIn,PressureMinIn,WindSpeedMaxMPH,WindSpeedAvgMPH,GustSpeedMaxMPH,PrecipitationSumIn
2013-2-1,36.4,24.0,12.0,16.5,9.0,4.2,76,54,29,30.43,30.17,15,2,15,0.00
2013-2-2,54.6,37.8,22.8,32.8,25.9,16.2,83,63,42,30.19,30.05,14,2,15,0.00
2013-2-3,54.9,44.2,37.6,31.5,27.1,21.4,73,53,29,30.14,29.93,18,3,19,0.00
2013-2-4,55.6,45.3,39.2,47.3,37.6,24.1,95,76,47,29.93,29.73,15,2,15,0.40
2013-2-5,65.9,47.1,32.2,42.9,35.3,30.2,94,67,30,29.97,29.82,13,1,13,0.00
2013-2-6,55.4,45.4,33.8,39.0,34.7,29.1,84,67,48,30.09,29.91,13,3,16,0.00
2013-2-7,63.4,50.8,40.6,55.0,45.8,36.5,95,83,65,29.92,29.74,15,2,16,0.30
2013-2-8,51.7,41.5,34.8,41.8,33.9,30.2,90,75,50,30.19,29.91,18,3,18,0.00
2013-2-9,40.0,35.1,30.7,36.2,31.5,28.0,93,87,75,30.20,29.87,14,3,15,0.01
2013-2-10,66.7,50.9,38.0,56.8,39.0,27.6,98,70,28,29.89,29.54,20,4,20,0.61
2013-2-11,55.0,42.6,36.0,30.9,27.7,25.6,69,56,34,30.07,29.88,19,2,19,0.00
2013-2-12,47.2,39.3,30.2,35.0,28.9,24.5,93,67,48,30.04,29.78,10,1,11,0.17
2013-2-13,53.7,41.0,33.5,40.0,34.2,31.0,96,79,44,29.90,29.80,13,2,17,0.17
2013-2-14,60.7,48.3,37.4,36.0,32.3,28.7,78,55,37,30.00,29.83,15,3,15,0.00
2013-2-15,44.9,38.7,27.5,32.0,23.1,12.9,74,54,32,30.18,29.99,16,3,16,0.00
2013-2-16,40.6,32.5,25.3,20.7,17.0,13.1,80,54,35,30.22,30.08,14,1,18,0.00
2013-2-17,61.2,44.8,30.1,35.2,25.9,18.1,74,49,29,30.08,29.80,13,2,13,0.00
2013-2-18,54.0,49.0,36.8,50.7,41.7,28.8,92,76,57,29.93,29.52,30,6,30,0.22
2013-2-19,47.7,36.2,27.6,29.1,19.9,12.6,78,54,27,30.20,29.92,19,4,24,0.00
2013-2-20,34.9,29.9,26.0,16.0,13.2,10.2,57,49,38,30.26,30.09,14,2,14,0.00
2013-2-21,31.5,29.5,26.9,30.5,26.7,15.6,96,89,55,30.10,29.69,23,3,23,0.08
2013-2-22,36.1,31.2,25.0,31.6,28.3,22.6,97,89,74,30.01,29.75,8,0,8,0.20
2013-2-23,43.2,31.5,20.9,29.1,23.8,18.7,92,75,48,30.02,29.88,8,1,8,0.02
2013-2-24,54.1,39.3,25.3,34.6,29.6,23.3,95,71,44,30.00,29.82,15,3,15,0.00
2013-2-25,54.4,41.3,34.4,39.3,32.9,27.3,94,74,42,29.83,29.24,25,4,25,1.06
2013-2-26,38.9,36.0,32.7,37.6,33.5,30.4,96,91,83,29.73,29.19,21,4,21,0.21
2013-2-27,42.6,36.5,34.2,32.7,29.3,26.1,84,75,59,29.92,29.69,22,5,22,0.00
2013-2-28,41.1,34.4,29.8,29.4,26.5,24.0,84,73,59,30.07,29.90,21,5,21,0.00